Location: Blanot
(47.1713°N, 4.2340°E)
Time: 10:13:46
(UTC+00:00)

Okean 3 - Pass Details

Date: 14 July 2020
Orbit: 576 x 601 km, 82.5° (Epoch: 05 August)

Event Time Altitude Azimuth Distance (km) Brightness Sun altitude
Rises 01:49:59 0° 348° (NNW) 2,804 7.7 -16.0°
Reaches altitude 10° 01:52:11 10° 347° (NNW) 1,902 6.7 -15.8°
Maximum altitude 01:56:22 71° 263° (W) 617 3.4 -15.5°
Enters shadow 01:58:48 24° 184° (S) 1,220 4.6 -15.2°
